When you browse on this site, cookies collect data to enhance your experience and personalize the content and advertising you see.
Visit our Privacy Policy to learn more. By continuing to use the site, you agree to this use of cookies and data.
  • en France
  • Liste des pays
  • À 7 jours
  • Température de l'eau
  • Carte météo
  • Widgets météo
  • user-avatar
    Se connecter

    Météo par heure à Airdrie

    Ce jour, 21 Août, Mercredi

    Heure Température Précipitation Vent Pression Humidité
    00:00 +11°C° 0 mm 1 m/s 756 mmHg 94%
    01:00 +10°C° 0 mm 2 m/s 756 mmHg 93%
    02:00 +12°C° 0 mm 2 m/s 756 mmHg 93%
    03:00 +12°C° 0 mm 2 m/s 755 mmHg 92%
    04:00 +12°C° 0 mm 2 m/s 755 mmHg 93%
    05:00 +12°C° 0 mm 2 m/s 755 mmHg 94%
    06:00 +13°C° 0 mm 2 m/s 755 mmHg 94%
    07:00 +13°C° 0 mm 3 m/s 755 mmHg 90%
    08:00 +14°C° 0 mm 4 m/s 755 mmHg 85%
    09:00 +15°C° 0 mm 5 m/s 755 mmHg 80%
    10:00 +15°C° 0.1 mm 6 m/s 755 mmHg 78%
    11:00 +16°C° 0.1 mm 6 m/s 754 mmHg 75%
    12:00 +16°C° 0.1 mm 7 m/s 754 mmHg 73%
    13:00 +15°C° 0.5 mm 7 m/s 753 mmHg 77%
    14:00 +15°C° 0.5 mm 7 m/s 753 mmHg 80%
    15:00 +14°C° 0.5 mm 7 m/s 753 mmHg 84%
    16:00 +12°C° 1.4 mm 7 m/s 752 mmHg 87%
    17:00 +13°C° 1.4 mm 6 m/s 752 mmHg 90%
    18:00 +13°C° 1.4 mm 6 m/s 751 mmHg 93%
    19:00 +13°C° 0.3 mm 5 m/s 751 mmHg 93%
    20:00 +13°C° 0.3 mm 5 m/s 751 mmHg 94%
    21:00 +12°C° 0.3 mm 4 m/s 751 mmHg 94%
    22:00 +12°C° 0.2 mm 4 m/s 751 mmHg 94%
    23:00 +12°C° 0.2 mm 3 m/s 751 mmHg 95%

    Demain, 22 Août, Jeudi

    Heure Température Précipitation Vent Pression Humidité
    00:00 +12°C° 0.2 mm 3 m/s 751 mmHg 95%
    01:00 +11°C° 0 mm 3 m/s 751 mmHg 94%
    02:00 +10°C° 0 mm 3 m/s 751 mmHg 93%
    03:00 +10°C° 0 mm 3 m/s 751 mmHg 92%
    04:00 +10°C° 0 mm 3 m/s 752 mmHg 93%
    05:00 +10°C° 0 mm 3 m/s 752 mmHg 93%
    06:00 +9°C° 0 mm 3 m/s 752 mmHg 93%
    07:00 +11°C° 0.1 mm 4 m/s 752 mmHg 89%
    08:00 +12°C° 0.1 mm 5 m/s 753 mmHg 85%
    09:00 +13°C° 0.1 mm 6 m/s 753 mmHg 82%
    10:00 +14°C° 0.1 mm 6 m/s 753 mmHg 78%
    11:00 +14°C° 0.1 mm 7 m/s 753 mmHg 75%
    12:00 +15°C° 0.1 mm 7 m/s 753 mmHg 71%
    13:00 +14°C° 0 mm 6 m/s 753 mmHg 73%
    14:00 +14°C° 0 mm 6 m/s 753 mmHg 74%
    15:00 +14°C° 0 mm 6 m/s 753 mmHg 76%
    16:00 +14°C° 0.5 mm 6 m/s 752 mmHg 81%
    17:00 +14°C° 0.5 mm 7 m/s 752 mmHg 86%
    18:00 +12°C° 0.5 mm 7 m/s 751 mmHg 91%
    19:00 +14°C° 0.6 mm 7 m/s 752 mmHg 92%
    20:00 +15°C° 0.6 mm 8 m/s 752 mmHg 93%
    21:00 +15°C° 0.6 mm 8 m/s 752 mmHg 94%
    22:00 +15°C° 0.1 mm 7 m/s 752 mmHg 93%
    23:00 +15°C° 0.1 mm 7 m/s 752 mmHg 93%

    Après-demain, 23 Août, Vendredi

    Heure Température Précipitation Vent Pression Humidité
    00:00 +15°C° 0.1 mm 6 m/s 752 mmHg 92%
    01:00 +14°C° 0.1 mm 6 m/s 752 mmHg 92%
    02:00 +14°C° 0.1 mm 6 m/s 752 mmHg 92%
    03:00 +14°C° 0.1 mm 6 m/s 752 mmHg 93%
    04:00 +14°C° 0.2 mm 6 m/s 753 mmHg 93%
    05:00 +14°C° 0.2 mm 6 m/s 753 mmHg 93%
    06:00 +14°C° 0.2 mm 6 m/s 753 mmHg 93%
    07:00 +14°C° 0.1 mm 6 m/s 754 mmHg 92%
    08:00 +15°C° 0.1 mm 5 m/s 754 mmHg 91%
    09:00 +15°C° 0.1 mm 5 m/s 755 mmHg 90%
    10:00 +16°C° 0 mm 5 m/s 755 mmHg 85%
    11:00 +17°C° 0 mm 5 m/s 755 mmHg 81%
    12:00 +19°C° 0 mm 5 m/s 756 mmHg 77%
    13:00 +19°C° 0 mm 5 m/s 756 mmHg 75%
    14:00 +20°C° 0 mm 5 m/s 756 mmHg 74%
    15:00 +20°C° 0 mm 4 m/s 756 mmHg 73%
    16:00 +19°C° 0 mm 4 m/s 756 mmHg 76%
    17:00 +19°C° 0 mm 3 m/s 756 mmHg 79%
    18:00 +19°C° 0 mm 3 m/s 756 mmHg 82%
    19:00 +17°C° 0 mm 2 m/s 756 mmHg 86%
    20:00 +16°C° 0 mm 2 m/s 756 mmHg 89%
    21:00 +15°C° 0 mm 1 m/s 756 mmHg 93%
    22:00 +15°C° 0 mm 1 m/s 756 mmHg 93%
    23:00 +15°C° 0 mm 1 m/s 756 mmHg 93%

    24 Août, Samedi

    Heure Température Précipitation Vent Pression Humidité
    00:00 +15°C° 0 mm 1 m/s 756 mmHg 93%
    01:00 +14°C° 0 mm 1 m/s 756 mmHg 94%
    02:00 +14°C° 0 mm 1 m/s 756 mmHg 94%
    03:00 +14°C° 0 mm 1 m/s 756 mmHg 95%
    04:00 +14°C° 0 mm 1 m/s 755 mmHg 95%
    05:00 +14°C° 0 mm 1 m/s 755 mmHg 95%
    06:00 +14°C° 0 mm 1 m/s 755 mmHg 95%
    07:00 +16°C° 0 mm 1 m/s 755 mmHg 91%
    08:00 +17°C° 0 mm 2 m/s 755 mmHg 86%
    09:00 +18°C° 0 mm 3 m/s 756 mmHg 82%
    10:00 +19°C° 0 mm 3 m/s 756 mmHg 78%
    11:00 +20°C° 0 mm 3 m/s 756 mmHg 74%
    12:00 +21°C° 0 mm 4 m/s 755 mmHg 70%
    13:00 +21°C° 0 mm 3 m/s 755 mmHg 71%
    14:00 +21°C° 0 mm 3 m/s 755 mmHg 73%
    15:00 +20°C° 0 mm 3 m/s 755 mmHg 74%
    16:00 +20°C° 0 mm 3 m/s 755 mmHg 76%
    17:00 +20°C° 0 mm 2 m/s 755 mmHg 79%
    18:00 +19°C° 0 mm 2 m/s 755 mmHg 81%
    19:00 +18°C° 0 mm 2 m/s 755 mmHg 83%
    20:00 +18°C° 0 mm 1 m/s 755 mmHg 86%
    21:00 +15°C° 0 mm 1 m/s 755 mmHg 89%
    22:00 +15°C° 0 mm 1 m/s 755 mmHg 89%
    23:00 +14°C° 0 mm 1 m/s 755 mmHg 90%

    25 Août, Dimanche

    Heure Température Précipitation Vent Pression Humidité
    00:00 +14°C° 0 mm 1 m/s 756 mmHg 90%
    01:00 +14°C° 0 mm 1 m/s 755 mmHg 90%
    02:00 +13°C° 0 mm 1 m/s 755 mmHg 90%
    03:00 +13°C° 0 mm 1 m/s 755 mmHg 90%
    04:00 +13°C° 0 mm 1 m/s 756 mmHg 89%
    05:00 +13°C° 0 mm 1 m/s 756 mmHg 88%
    06:00 +13°C° 0 mm 1 m/s 756 mmHg 88%
    07:00 +15°C° 0 mm 1 m/s 756 mmHg 83%
    08:00 +18°C° 0 mm 1 m/s 756 mmHg 79%
    09:00 +19°C° 0 mm 1 m/s 756 mmHg 75%
    10:00 +20°C° 0 mm 1 m/s 756 mmHg 73%
    11:00 +20°C° 0 mm 2 m/s 756 mmHg 72%
    12:00 +21°C° 0 mm 2 m/s 756 mmHg 70%
    13:00 +21°C° 0 mm 2 m/s 756 mmHg 70%
    14:00 +21°C° 0 mm 3 m/s 756 mmHg 70%
    15:00 +22°C° 0 mm 3 m/s 756 mmHg 70%
    16:00 +21°C° 0 mm 3 m/s 756 mmHg 74%
    17:00 +20°C° 0 mm 3 m/s 756 mmHg 78%
    18:00 +19°C° 0 mm 2 m/s 756 mmHg 82%
    19:00 +18°C° 0 mm 2 m/s 757 mmHg 85%
    20:00 +17°C° 0 mm 2 m/s 757 mmHg 88%
    21:00 +15°C° 0 mm 2 m/s 757 mmHg 91%
    22:00 +15°C° 0 mm 2 m/s 757 mmHg 90%
    23:00 +15°C° 0 mm 2 m/s 757 mmHg 90%

    26 Août, Lundi

    Heure Température Précipitation Vent Pression Humidité
    00:00 +15°C° 0 mm 2 m/s 757 mmHg 90%
    01:00 +14°C° 0 mm 2 m/s 757 mmHg 90%
    02:00 +14°C° 0 mm 2 m/s 757 mmHg 89%
    03:00 +14°C° 0 mm 2 m/s 757 mmHg 89%
    04:00 +14°C° 0 mm 2 m/s 757 mmHg 88%
    05:00 +13°C° 0 mm 2 m/s 757 mmHg 87%
    06:00 +13°C° 0 mm 2 m/s 757 mmHg 87%
    07:00 +15°C° 0 mm 2 m/s 757 mmHg 80%
    08:00 +16°C° 0 mm 2 m/s 758 mmHg 73%
    09:00 +18°C° 0 mm 2 m/s 758 mmHg 67%
    10:00 +19°C° 0 mm 2 m/s 758 mmHg 64%
    11:00 +20°C° 0 mm 2 m/s 758 mmHg 61%
    12:00 +21°C° 0 mm 3 m/s 758 mmHg 58%
    13:00 +22°C° 0 mm 3 m/s 758 mmHg 58%
    14:00 +23°C° 0 mm 2 m/s 758 mmHg 58%
    15:00 +23°C° 0 mm 2 m/s 758 mmHg 58%
    16:00 +23°C° 0 mm 2 m/s 758 mmHg 62%
    17:00 +21°C° 0 mm 2 m/s 757 mmHg 66%
    18:00 +21°C° 0 mm 1 m/s 757 mmHg 70%
    19:00 +20°C° 0 mm 1 m/s 757 mmHg 72%
    20:00 +18°C° 0 mm 1 m/s 758 mmHg 75%
    21:00 +16°C° 0 mm 1 m/s 758 mmHg 78%
    22:00 +15°C° 0 mm 1 m/s 758 mmHg 80%
    23:00 +15°C° 0 mm 1 m/s 758 mmHg 83%
    Voir plus